Weather in Galchino

Russia / Moscow Oblast     55°16′38″N   37°54′27″E
temp.,
°C
wind,
m/s
gust,
m/s
humid.,
%
clouds,
%
prec.,
mm/h
press.,
hPa
HPBL,
m
25 february, thu
thu2500:00−13ssw489499 0.2 1028296
03:00−10ssw5994100 0.9 1025320
06:00−6sw71494100 2.5 1019444
09:00+1wsw71495100 3.3 1015545
12:00+2w615100100 0.3 1013373
15:00+3wnw614100100 0.3 1013379
18:00+2wnw49100100 0.0 1014232
21:00+1w36100100 0.3 1014110
26 february, fri
fri2600:00+2wsw410100100 0.4 1013217
03:00+2w513100100 1.4 1013333
06:00+2w613100100 0.5 1010332
09:00+2wsw713100100 0.6 1009394
12:00+2w614100100 0.1 1006388
15:00+2w71799100 0.3 1005492
18:00+2w7168778 0.1 1003702
21:00+1w7168787 0.1 1004709
27 february, sat
sat2700:00+1w8168697 0.0 1002723
03:000w7159081 0.0 1002538
06:000wnw8159763 0.1 1001715
09:00+1wnw8149381 0.1 1002826
12:00−1nnw81388100 0.6 1003865
15:00−4nnw71287100 0.6 1006676
18:00−6nnw5119097 0.0 1008533
21:00−9n5119393 0.0 1012504
28 february, sun
sun2800:00−10n499497 0.0 1013417
03:00−10nnw499481 0.0 1016345
06:00−10nnw399546 0.0 1016337
09:00−8n499368 0.3 1018468
12:00−5nnw599097 0.1 1019657
15:00−3nnw588999 0.1 1020792
18:00−4nnw4893100 0.1 1021443
21:00−4n4995100 0.2 1023502
1 march, mon
mon100:00−5nnw3795100 0.1 1025338
03:00−5nw2392100 0.1 1026119
06:00−6w3596100 0.1 1026129
09:00−6wsw369460 0.1 1026181
12:00−2w468856 0.0 1028466
15:00−1w579151 0.0 1027468
18:00−1w5994100 0.0 1026433
21:000w51193100 0.0 1025530